Regional Weather Roundup
Issued by NWS Northern Indiana

Home | Current Version | Previous Version | Graphics & Text | Print | Product List | Glossary On
Versions: 1 2 3 4 5 6 7 8 9 10 11 12 13 14 15 16 17 18 19 20 21 22 23 24 25 26 27 28 29 30 31 32 33 34 35 36 37 38 39 40 41 42 43 44 45 46 47 48 49 50
000
ASUS43 KIWX 272310
RWRIWX

KIWX WEATHER ROUNDUP
NATIONAL WEATHER SERVICE NORTHERN INDIANA
600 PM EST SAT DEC 27 2014

NOTE: "FAIR" INDICATES FEW OR NO CLOUDS BELOW 12,000 FEET WITH NO
SIGNIFICANT WEATHER AND/OR OBSTRUCTIONS TO VISIBILITY.

* THESE STATIONS ARE NOT UNDER NWS QUALITY CONTROL. THEY ALSO MAY NOT
  REPORT WEATHER SUCH AS PRECIPITATION OR FOG.

INZ001>027-280000-
NORTHERN INDIANA

CITY           SKY/WX    TMP DP  RH WIND       PRES   REMARKS
GARY*          CLOUDY    39  27  60 W23G41    30.05
VALPARAISO     CLOUDY    36  32  85 W17       30.06R
MICHIGAN CITY* CLOUDY    36  28  75 W17       30.06R
LAPORTE*       CLOUDY    38  35  88 W10       30.05R
KNOX*          CLOUDY    37  31  79 W10       30.02F
SOUTH BEND     CLOUDY    38  33  82 W13       30.02F
GOSHEN         LGT RAIN  39  34  82 W13       30.02F
MONTICELLO*    CLOUDY    38  36  93 W7        30.07R
LOGANSPORT*    DRIZZLE   37  36  93 W10       30.06S
ROCHESTER*     CLOUDY    41  37  87 W8        30.03F
WARSAW*        CLOUDY    39  37  93 W10G17    30.03S
ANGOLA*        CLOUDY    45  41  87 W17G30    30.00R
FORT WAYNE     DRIZZLE   47  45  93 SW13      30.02F FOG
HUNTINGTON*    CLOUDY    46  42  86 W9        30.02F
PERU/GRISSOM   CLOUDY    41  41 100 NW16      30.04S FOG
MARION*        CLOUDY    46  46  98 SW10      30.04F FOG

$$
INZ028>050-280000-
CENTRAL INDIANA

CITY           SKY/WX    TMP DP  RH WIND       PRES   REMARKS
LAFAYETTE      LGT RAIN  39  36  89 W9        30.09R
KOKOMO*        CLOUDY    43  39  87 W14       30.04F
MUNCIE*        CLOUDY    47  45  93 SW7       30.04F FOG
INDIANAPOLIS   DRZL/FOG  45  45 100 SW7       30.06F VSB 1/2

$$
MIZ043>046-050>051-056>058-064>065-071>073-077>080-280000-
SOUTHWEST LOWER MICHIGAN

CITY           SKY/WX    TMP DP  RH WIND       PRES   REMARKS
BATTLE CREEK   LGT RAIN  40  34  79 W17G26    29.99R
BENTON HARBOR  CLOUDY    37  32  82 W21       30.03R
COLDWATER*     LGT RAIN  43  41  93 W15G21    29.98S
HILLSDALE*     LGT RAIN  47  47  98 W12       29.96F
HOLLAND        CLOUDY    39  31  72 W22G28    30.00S
GRAND RAPIDS   CLOUDY    38  32  79 W23       29.98R
KALAMAZOO      CLOUDY    39  33  79 W13       30.00R
STURGIS*       DRIZZLE   43  37  81 W13G23    29.99F
THREE RIVERS*  DRIZZLE   39  33  80 W10G22    30.01F

$$
OHZ001>008-015>018-024>025-280000-
NORTHWEST OHIO

CITY           SKY/WX    TMP DP  RH WIND       PRES   REMARKS
WAUSEON*       CLOUDY    46  46 100 SW12G20   30.01R
DEFIANCE       CLOUDY    48  45  89 SW12G18   30.03R
FINDLAY        CLOUDY    48  45  89 SW15      30.03R
TOLEDO EXPRESS CLOUDY    47  44  90 SW13G22   30.01R
TOLEDO METCALF CLOUDY    48  44  86 SW16G23   30.02R
LIMA           CLOUDY    49  44  83 SW13      30.05R

$$
AND FOR LAKE MICHIGAN COASTAL AND OPEN LAKE BUOY OBSERVATIONS

STATION/POSITION TEMP    WIND        PRES    VSBY  WAVE
                 AIR SEA DIR/SP/G                  HT/PER
                 (F)     (DEG/KT/KT) (MB)    (MI)  (FT/S)
CALUMET HARBOR    36     250/ 11/ 19 1016.6R
MICHIGAN CITY     37     240/ 22/ 26   N/A
SAINT JOSEPH      38     240/ 17/ 22 1017.3R

$$
&&



USA.gov is the U.S. government's official web portal to all federal, state and local government web resources and services.